Regional Weather Roundup
Issued by NWS

Home | Current Version | Previous Version | Graphics & Text | Print | Product List | Glossary On
Versions: 1 2 3 4 5 6 7 8 9 10 11 12 13 14 15 16 17 18 19 20 21 22 23 24 25 26 27 28 29 30 31 32 33 34 35 36 37 38 39 40 41 42 43 44 45 46 47 48 49 50
000
ASUS43 KTOP 040459
RWRKS

WEATHER ROUNDUP FOR KANSAS
NATIONAL WEATHER SERVICE GOODLAND KS
1200 AM CDT WED MAY 04 2016

NOTE:  "FAIR" INDICATES FEW OR NO CLOUDS BELOW 12,000 FEET WITH NO
SIGNIFICANT WEATHER AND/OR OBSTRUCTIONS TO VISIBILITY.

KSZ001>006-013>018-027>032-041>047-040600-
NORTHWEST KANSAS

CITY           SKY/WX    TMP DP  RH WIND       PRES   REMARKS
GOODLAND       CLEAR     45  37  73 W9        30.13S
HAYS           CLEAR     48  37  66 W7        30.05S
HILL CITY      CLEAR     50  43  77 W6        30.05F
RUSSELL        CLEAR     50  44  80 W8        30.02S
$$

KSZ061>065-074>080-084>089-040600-
SOUTHWEST KANSAS

CITY           SKY/WX    TMP DP  RH WIND       PRES   REMARKS
DODGE CITY     CLEAR     47  41  80 W6        30.10S
ELKHART          N/A     49  38  66 W5          N/A
GARDEN CITY    CLEAR     47  40  76 W6        30.10F
GREAT BEND     CLEAR     48  41  76 W8        30.04F
LIBERAL        CLEAR     46  37  71 NW5       30.13S
$$

KSZ066>073-081>083-090>101-040600-
SOUTHEAST KANSAS

CITY           SKY/WX    TMP DP  RH WIND       PRES   REMARKS
CHANUTE        CLEAR     55  47  74 SW9       29.97S
COFFEYVILLE    PTCLDY    56  48  74 S7        29.98F
HUTCHINSON     CLEAR     52  46  80 NW6       30.03R
MEDICINE LODGE   N/A     51  45  79 NW3       30.04S
NEWTON         CLEAR     54  41  62 W6        30.03S
PARSONS        MOCLDY    56  49  77 CALM      29.99S
WICHITA INTL   PTCLDY    56  45  66 W8        30.01S
WICHITA JABRA  CLEAR     57  46  66 W8        30.00S
WINFIELD       MOCLDY    55  46  71 W7        30.39S
$$

KSZ007>012-019>026-033>040-048>060-102>105-040600-
NORTHEAST KANSAS

CITY           SKY/WX    TMP DP  RH WIND       PRES   REMARKS
CONCORDIA      CLEAR     54  42  64 W8        29.97F
EMPORIA        CLEAR     56  46  69 W3        29.97S
LAWRENCE       CLEAR     47  45  93 CALM      29.93F
MANHATTAN      CLEAR     53  45  74 W5        29.96F
OLATHE IND     CLEAR     55  46  71 SW7       29.93F
OLATHE EXE     CLEAR     55  44  66 SW3       29.93F
SALINA         CLEAR     58  44  60 W7        30.00S
TOPEKA BILLARD CLEAR     52  48  86 CALM      29.93F
TOPEKA FORBES  CLEAR     53  46  77 SW9       29.93F
$$




USA.gov is the U.S. government's official web portal to all federal, state and local government web resources and services.